This demonstration page uses our WeatherBlox Daily Observations layout. Learn more.

Left ArrowRight Arrow

Hourly Observations for May 27, 2017

Temp ( °F °C ) Dew Point ( °F °C ) Humidity (%) Winds ( mph kmh ) Pressure ( in mb ) Visibility ( mi km ) Precip ( " mm )
12:15 am 00:15 Partly Cloudy 64 17.8 48 9 57 57 E 6 9 29.85 1011 10 16 N/A
12:35 am 00:35 Partly Cloudy 64 18 48 8.7 55 55 E 5 7 29.85 1011 10 16 N/A
12:55 am 00:55 Mostly Cloudy 64 17.5 48 9.1 58 58 N N/A 29.85 1011 10 16 N/A
1:15 am 01:15 Cloudy with Light Rain 63 17.1 50 10.1 64 64 N N/A 29.88 1012 10 16 N/A
1:35 am 01:35 Cloudy with Light Rain 63 17.4 52 11 66 66 WNW 3 6 29.88 1012 10 16 N/A
1:55 am 01:55 Cloudy with Light Rain 63 17 52 11.2 69 69 WNW 12 19 29.88 1012 10 16 N/A
2:15 am 02:15 Cloudy with Light Rain 61 16.2 55 12.6 79 79 NNW 8 13 29.88 1012 10 16 N/A
2:35 am 02:35 Cloudy with Light Rain 60 15.7 54 12.3 80 80 N 9 15 29.88 1012 10 16 0.01 0.25
2:55 am 02:55 Cloudy with Rain 59 15.2 56 13.4 89 89 WNW 9 15 29.91 1013 10 16 0.02 0.51
3:15 am 03:15 Cloudy with Nearby Thunderstorms 59 15.2 56 13.2 88 88 NNW 3 6 29.91 1013 10 16 0.03 0.76
3:35 am 03:35 Cloudy with Rain 59 15 56 13.4 90 90 ESE 8 13 29.91 1013 5 8 0.09 2.29
3:55 am 03:55 Cloudy with Rain 59 14.9 56 13.5 91 91 SSE 8 13 29.88 1012 7 11 0.16 4.06
4:15 am 04:15 Cloudy with Nearby Thunderstorms 59 14.8 56 13.1 90 90 NE 10 17 29.88 1012 7 11 0.05 1.27
4:35 am 04:35 Mostly Cloudy with Light Rain 57 14 55 12.5 91 91 E 21 33 29.80 1009 10 16 0.08 2.03
4:55 am 04:55 Partly Cloudy 58 14.5 55 12.7 89 89 SE 20 31 29.77 1008 10 16 0.09 2.29
5:15 am 05:15 Partly Cloudy 58 14.6 54 12.4 87 87 E 5 7 29.85 1011 10 16 N/A
5:35 am 05:35 Clear 58 14.2 53 11.8 86 86 E 8 13 29.85 1011 10 16 N/A
5:55 am 05:55 Clear 56 13.6 52 11.1 85 85 NE 9 15 29.85 1011 10 16 N/A
6:15 am 06:15 Partly Cloudy 56 13.1 52 11 87 87 NE 7 11 29.85 1011 10 16 N/A
6:35 am 06:35 Sunny 55 13 52 10.9 87 87 ENE 13 20 29.85 1011 10 16 N/A
6:55 am 06:55 Sunny 55 13 51 10.7 86 86 NE 16 26 29.83 1010 10 16 N/A
7:15 am 07:15 Sunny 56 13.1 51 10.4 84 84 NE 12 19 29.85 1011 10 16 N/A
7:35 am 07:35 Sunny 56 13.5 50 10.2 81 81 NE 13 20 29.88 1012 10 16 N/A
7:55 am 07:55 Sunny 56 13.5 51 10.6 83 83 NE 10 17 29.88 1012 10 16 N/A
8:15 am 08:15 Sunny 56 13.5 50 10.1 80 80 NE 13 20 29.88 1012 10 16 N/A
8:35 am 08:35 Sunny 57 13.8 50 9.9 78 78 NE 13 20 29.88 1012 10 16 N/A
8:55 am 08:55 Sunny 58 14.5 50 9.9 74 74 NE 13 20 29.88 1012 10 16 N/A
9:15 am 09:15 Sunny 59 15.2 50 10.1 72 72 NE 14 22 29.85 1011 10 16 N/A
9:35 am 09:35 Sunny 61 16.1 50 10.2 68 68 ENE 12 19 29.85 1011 10 16 N/A
9:55 am 09:55 Sunny 62 16.5 50 10 66 66 ENE 10 17 29.85 1011 10 16 N/A
10:15 am 10:15 Sunny 62 16.8 51 10.6 67 67 NE 10 17 29.85 1011 10 16 N/A
10:35 am 10:35 Sunny 63 17.3 52 11 67 67 NE 9 15 29.88 1012 10 16 N/A
10:55 am 10:55 Sunny 64 17.5 51 10.7 65 65 NE 8 13 29.88 1012 10 16 N/A
11:15 am 11:15 Sunny 64 18 51 10.7 63 63 NNE 8 13 29.88 1012 10 16 N/A
11:35 am 11:35 Sunny 65 18.6 53 11.4 63 63 NNE 9 15 29.88 1012 10 16 N/A
11:55 am 11:55 Sunny 65 18.5 52 10.9 61 61 N 12 19 29.88 1012 10 16 N/A
12:15 pm 12:15 Partly Cloudy 66 19.1 53 11.8 63 63 NNE 10 17 29.85 1011 10 16 N/A
12:35 pm 12:35 Sunny 67 19.4 53 11.7 61 61 NNE 14 22 29.85 1011 10 16 N/A
12:55 pm 12:55 Partly Cloudy 67 19.6 53 11.5 60 60 N 9 15 29.85 1011 10 16 N/A
1:15 pm 13:15 Partly Cloudy 68 20.1 53 11.4 57 57 N 10 17 29.85 1011 10 16 N/A
1:35 pm 13:35 Partly Cloudy 69 20.3 52 11 55 55 N 13 20 29.85 1011 10 16 N/A
1:55 pm 13:55 Partly Cloudy 69 20.7 51 10.6 53 53 N 12 19 29.85 1011 10 16 N/A
2:15 pm 14:15 Mostly Cloudy 70 21.1 51 10.7 52 52 N 10 17 29.85 1011 10 16 N/A
2:35 pm 14:35 Cloudy 70 21.1 51 10.5 51 51 NNW 9 15 29.85 1011 10 16 N/A
2:55 pm 14:55 Cloudy 70 21 51 10.5 51 51 N 10 17 29.85 1011 10 16 N/A
3:15 pm 15:15 Cloudy 70 20.9 51 10.7 52 52 N 13 20 29.85 1011 10 16 N/A
3:35 pm 15:35 Cloudy 69 20.7 51 10.4 52 52 N 12 19 29.85 1011 10 16 N/A
3:55 pm 15:55 Cloudy 69 20.7 51 10.6 53 53 N 14 22 29.85 1011 10 16 N/A
4:15 pm 16:15 Cloudy 69 20.7 51 10.4 52 52 N 13 20 29.85 1011 10 16 N/A
4:35 pm 16:35 Cloudy 69 20.4 50 10.2 52 52 N 15 24 29.85 1011 10 16 N/A
4:55 pm 16:55 Cloudy 69 20.8 50 10 50 50 N 15 24 29.85 1011 10 16 N/A
5:15 pm 17:15 Cloudy 66 19.1 52 11 60 60 NNW 16 26 29.91 1013 10 16 N/A
5:35 pm 17:35 Cloudy 66 19.1 52 11.3 61 61 N 17 28 29.91 1013 10 16 N/A
5:55 pm 17:55 Mostly Cloudy 67 19.6 53 11.6 60 60 N 20 31 29.88 1012 10 16 N/A
6:15 pm 18:15 Mostly Cloudy 65 18.5 52 11.1 62 62 N 12 19 29.91 1013 10 16 N/A
6:35 pm 18:35 Cloudy 65 18.3 53 11.8 66 66 N 12 19 29.94 1014 10 16 N/A
6:55 pm 18:55 Cloudy 65 18.4 52 11.2 63 63 N 13 20 29.94 1014 10 16 N/A
7:15 pm 19:15 Cloudy 64 18 53 11.4 66 66 NNE 10 17 29.91 1013 10 16 N/A
7:35 pm 19:35 Cloudy 64 18 52 11.1 64 64 N 12 19 29.94 1014 10 16 N/A
7:55 pm 19:55 Cloudy 64 18 52 11 64 64 N 9 15 29.94 1014 10 16 N/A
8:15 pm 20:15 Cloudy 64 17.6 51 10.8 65 65 N 9 15 29.94 1014 10 16 N/A
8:35 pm 20:35 Partly Cloudy 62 16.8 51 10.7 67 67 N 8 13 29.94 1014 10 16 N/A
8:55 pm 20:55 Sunny 61 16.3 52 10.9 71 71 N 9 15 29.94 1014 10 16 N/A
9:15 pm 21:15 Clear 60 15.7 52 11 74 74 N 6 9 29.97 1015 10 16 N/A
9:35 pm 21:35 Clear 60 15.4 52 11 75 75 NNW 7 11 30.00 1016 10 16 N/A
9:55 pm 21:55 Clear 59 15 52 11.1 78 78 NW 6 9 30.00 1016 10 16 N/A
10:15 pm 22:15 Clear 59 14.9 52 10.9 77 77 NW 7 11 30.03 1017 10 16 N/A
10:35 pm 22:35 Clear 58 14.4 51 10.5 78 78 NW 6 9 30.03 1017 10 16 N/A
10:55 pm 22:55 Clear 57 13.7 51 10.5 81 81 NW 5 7 30.03 1017 10 16 N/A
11:15 pm 23:15 Clear 55 13 51 10.5 85 85 NW 6 9 30.06 1018 10 16 N/A
11:35 pm 23:35 Clear 54 12.4 50 10 85 85 WNW 3 6 30.06 1018 10 16 N/A
11:55 pm 23:55 Clear 54 12.2 50 10.1 87 87 WNW 3 6 30.03 1017 10 16 N/A

Powered by AerisWeather